Wind_Speed
4 3 4 7 11 13 15 20 15 14 26 25 27 30 27 33 34 37 35 28 23 19 24 27 31 35 37 39 37 33 27 24 20 12 8 13 27 31 22 23 29 28 24
6 6 3 7 6 10 14 19 18 16 17 24 26 30 28 33 36 40 40 32 25 21 23 27 32 35 38 39 38 35 32 25 24 19 12 7 13 19 34 37 25 31 29
12 8 3 11 9 11 13 14 16 19 17 18 22 25 26 31 35 39 40 32 27 23 22 27 30 34 36 39 39 37 32 24 25 22 13 11 10 6 18 35 39 30 29
14 11 8 7 13 10 11 12 14 19 16 19 21 27 25 26 33 36 40 33 27 25 25 25 29 33 37 40 41 35 30 26 23 19 16 12 14 16 11 9 12 23 26
25 15 11 9 13 11 13 13 12 17 17 14 24 29 33 28 34 36 42 32 24 21 23 28 30 33 36 40 36 31 33 30 25 20 18 15 16 15 16 16 16 15 16
29 24 19 16 17 14 14 15 15 17 18 11 17 26 34 35 31 37 40 30 21 23 28 29 31 33 36 34 32 34 35 35 30 25 22 14 12 17 17 19 21 20 23
34 28 23 18 15 16 14 17 19 14 18 15 12 24 32 34 31 36 40 34 29 29 30 31 32 32 32 30 32 33 34 36 36 35 30 25 24 25 26 28 31 35 36
37 34 29 22 26 20 15 15 17 15 11 16 15 18 33 31 38 34 40 32 27 26 34 34 32 31 32 31 31 31 32 34 36 37 38 37 37 39 40 41 45 45 50
36 40 37 30 31 25 19 14 13 16 15 13 18 18 21 31 33 37 39 36 31 29 36 32 29 30 28 29 33 35 39 43 41 46 50 49 39 40 48 48 51 46 48
40 37 38 36 37 29 27 19 20 19 17 14 16 17 22 23 30 31 36 37 35 28 34 29 28 27 32 32 42 39 39 44 45 45 45 44 43 41 37 37 43 45 34
39 37 36 40 37 31 31 20 19 18 18 17 16 17 19 23 27 30 30 35 41 34 32 25 26 24 31 31 36 31 29 34 34 35 39 40 39 37 39 36 37 39 45
39 42 37 39 37 33 32 26 21 20 21 19 18 16 16 21 23 28 30 32 35 32 29 23 20 21 22 23 27 33 32 31 23 26 26 32 34 38 35 38 40 37 39
32 40 40 35 37 35 32 33 29 26 23 22 20 18 11 17 19 29 26 31 34 31 28 24 16 9 7 10 17 24 29 37 23 13 20 24 30 31 29 35 36 35 38
33 38 39 39 38 37 34 30 26 27 24 24 22 16 10 14 18 25 23 26 31 39 27 22 14 5 5 7 16 20 31 37 33 7 15 17 25 23 23 26 32 33 32
27 37 43 42 38 38 35 32 28 30 25 24 23 19 14 14 15 21 21 24 30 41 32 19 17 5 6 12 13 22 29 36 32 17 7 13 19 14 19 23 23 28 28
25 33 46 46 45 38 29 28 26 30 29 26 25 16 13 11 16 17 21 24 30 34 30 21 19 15 11 13 18 23 26 28 24 18 5 9 14 14 17 18 21 23 27
28 28 37 47 48 47 47 40 30 27 27 27 24 20 13 15 18 13 18 28 27 29 26 21 20 17 17 15 17 20 22 23 21 15 11 5 9 12 15 16 21 25 30
30 25 32 36 50 47 51 46 37 28 27 24 24 25 17 17 19 16 18 28 24 22 22 19 19 19 15 15 14 15 16 20 18 16 12 12 13 12 13 19 22 28 32
28 25 24 28 29 36 37 43 47 38 29 23 27 26 23 19 14 18 18 23 25 19 25 20 17 20 17 14 15 11 13 16 11 15 19 15 11 14 18 18 23 26 29
24 25 21 22 19 12 13 24 35 37 39 30 33 30 24 27 19 20 22 26 28 19 18 20 17 18 16 14 11 9 10 11 14 17 19 14 16 17 19 23 24 27 31
24 24 20 19 19 16 13 15 20 34 34 32 38 36 25 29 23 25 26 29 32 21 17 21 24 20 19 16 15 13 12 13 17 19 20 18 19 21 23 28 31 32 32
22 23 22 22 26 21 20 19 23 28 38 41 36 35 30 30 25 28 29 30 33 19 17 20 25 24 20 17 16 17 19 18 21 21 21 21 22 24 28 31 36 38 38
20 23 23 26 29 27 24 19 27 27 42 49 44 37 27 29 29 29 30 24 25 17 21 26 27 27 24 19 17 18 19 20 21 23 23 23 26 29 31 34 38 36 41
24 21 22 20 27 29 27 26 26 29 29 54 53 49 40 35 33 29 29 23 27 30 22 22 23 26 25 22 18 19 19 21 25 26 27 28 29 31 35 37 39 42 44
27 25 23 21 24 30 31 30 31 31 28 54 49 43 40 33 35 30 26 24 24 33 20 19 20 24 26 23 19 19 21 22 24 26 28 28 30 31 33 39 42 44 46
24 25 28 28 29 28 25 34 30 23 25 40 59 47 50 39 37 30 29 29 23 25 17 17 21 25 27 29 22 19 20 24 25 26 27 29 30 34 32 31 38 45 45
Wind_Direction
179 318 31 28 29 46 26 26 23 18 19 15 16 12 11 13 14 12 9 11 8 12 15 12 12 10 5 1 357 359 1 354 352 342 282 250 237 227 237 201 240 252 254
194 275 341 359 10 12 20 17 25 22 10 2 20 12 6 11 16 14 12 11 12 12 13 12 16 10 3 359 356 357 1 359 354 358 352 282 252 241 231 224 231 235 246
195 224 296 332 349 359 358 16 20 12 7 354 17 14 5 10 17 15 15 9 11 11 11 10 6 2 357 355 356 356 358 360 356 1 0 13 20 314 245 247 248 234 234
200 216 247 309 325 334 342 353 6 15 4 1 19 16 8 6 15 13 17 10 11 7 8 1 356 358 353 351 354 357 358 0 5 5 4 22 31 34 24 347 292 283 284
226 221 240 276 306 306 317 337 353 351 8 353 6 16 7 359 11 11 18 12 14 14 3 357 357 352 351 351 3 3 3 4 7 13 17 53 37 24 19 10 7 353 330
226 230 228 251 274 302 290 312 339 344 2 353 333 3 3 1 5 18 14 13 19 13 9 1 358 354 354 10 20 22 18 24 29 26 30 32 17 358 2 0 359 355 349
223 224 225 240 259 280 278 286 313 340 3 342 343 349 4 6 359 17 16 12 10 13 11 5 358 3 18 31 30 26 26 31 38 42 45 44 35 38 34 40 45 46 45
226 226 231 233 255 272 273 279 297 325 332 332 342 346 347 358 355 8 14 13 11 15 11 10 17 30 46 38 38 34 35 37 43 52 58 63 66 65 60 61 62 63 64
226 226 228 237 251 267 272 266 285 307 326 337 346 5 354 348 355 359 18 21 15 14 18 23 42 49 51 50 51 55 56 54 52 64 69 69 69 76 72 65 60 65 62
230 226 229 236 245 260 265 266 259 281 304 312 335 349 345 352 355 12 19 23 21 15 22 41 47 67 61 65 63 58 65 66 73 71 66 61 64 66 61 60 47 46 52
222 229 232 235 242 250 259 254 263 267 288 301 317 334 350 347 357 357 21 24 18 20 25 50 55 74 70 74 59 55 62 63 56 71 52 48 48 50 47 52 48 48 43
219 222 229 233 239 245 251 258 256 257 273 283 298 323 345 345 355 352 15 20 16 19 21 50 57 88 90 70 50 48 48 34 61 49 50 48 41 38 44 43 44 45 39
226 223 222 233 237 239 246 252 260 258 259 267 280 305 327 335 345 356 2 12 14 16 14 38 60 101 73 41 16 8 18 15 34 46 50 45 35 28 39 38 45 47 46
231 223 218 228 235 236 243 250 242 250 250 261 274 277 328 323 335 357 358 11 20 17 7 13 51 107 115 338 344 351 360 359 16 44 50 51 32 29 47 55 62 56 49
238 225 218 223 232 234 241 242 244 242 248 255 272 267 302 304 323 349 354 9 19 15 8 3 23 48 265 293 316 327 340 351 4 30 45 40 29 45 55 50 52 53 40
230 227 218 217 218 230 233 231 233 240 241 250 259 268 294 299 325 315 342 5 12 11 4 1 1 12 349 328 320 333 348 351 4 7 21 34 49 43 51 53 48 33 14
225 225 223 220 219 221 219 223 241 235 240 245 247 265 274 290 315 321 331 350 357 1 360 360 352 355 359 350 354 344 350 2 10 16 29 34 34 31 45 46 27 19 21
225 220 220 221 222 225 229 238 246 244 237 233 243 257 253 262 289 294 303 325 336 359 1 354 351 342 347 356 9 15 14 21 25 28 26 14 9 11 359 8 5 4 1
219 219 218 215 220 229 238 240 242 238 234 234 235 245 253 259 298 291 299 311 322 347 345 353 350 343 326 335 359 16 13 15 6 7 23 19 353 3 4 13 15 7 8
215 214 214 204 206 220 245 245 240 237 239 239 231 245 249 248 277 300 288 302 310 323 342 354 349 332 317 309 330 341 347 334 352 353 347 1 11 6 3 6 357 356 1
208 212 209 209 195 209 224 255 259 229 233 223 230 238 232 242 273 287 290 295 300 302 341 352 357 341 324 291 296 314 332 334 337 337 333 328 332 335 338 340 337 340 343
205 207 207 218 207 205 211 229 254 236 222 223 234 233 226 268 262 267 282 291 308 314 334 355 357 346 334 304 292 297 308 319 322 326 329 326 333 335 334 331 333 341 346
212 199 203 212 210 213 228 225 254 258 228 223 225 229 245 241 256 267 276 283 307 300 331 337 351 356 345 324 288 285 296 313 320 326 328 334 333 335 337 335 338 344 345
205 211 210 221 216 220 225 239 249 261 245 214 227 238 236 237 249 261 263 277 302 302 320 338 352 357 354 335 300 287 296 306 310 310 313 318 318 323 328 332 332 330 336
213 225 212 207 215 223 225 223 233 254 255 217 225 224 234 240 247 254 270 272 296 307 315 334 352 353 356 345 318 293 289 294 301 308 309 316 320 319 318 322 329 332 332
243 227 221 213 221 217 222 228 232 250 254 227 225 234 235 240 248 252 266 272 291 295 312 330 341 344 347 345 329 312 297 292 293 297 303 307 310 313 321 327 339 343 343
Height
11065 11065 11065 11065 11066 11062 11060 11057 11054 11051 11048 11046 11042 11038 11033 11029 11024 11016 11008 11002 10997 10993 10989 10983 10977 10971 10964 10958 10951 10946 10941 10935 10932 10927 10926 10927 10928 10932 10929 10931 10925 10926 10923
11064 11064 11064 11064 11065 11064 11061 11059 11054 11053 11052 11049 11044 11038 11034 11030 11024 11016 11009 11002 10997 10993 10989 10984 10979 10973 10968 10960 10952 10946 10941 10936 10931 10927 10924 10921 10921 10922 10925 10925 10927 10924 10924
11062 11063 11062 11063 11063 11063 11062 11061 11058 11055 11053 11049 11045 11041 11036 11031 11025 11019 11010 11003 10998 10995 10991 10986 10981 10975 10968 10961 10953 10946 10939 10935 10930 10926 10924 10921 10918 10919 10919 10918 10918 10921 10919
11060 11061 11062 11062 11062 11062 11061 11060 11058 11055 11052 11051 11046 11043 11039 11034 11028 11023 11013 11006 11001 10996 10993 10988 10982 10975 10968 10960 10953 10946 10938 10932 10928 10925 10923 10922 10920 10917 10916 10916 10916 10913 10911
11057 11059 11060 11060 11062 11062 11060 11059 11057 11056 11053 11050 11047 11043 11041 11036 11030 11024 11016 11008 11002 10999 10995 10988 10982 10975 10969 10961 10953 10945 10938 10934 10929 10925 10922 10923 10923 10922 10919 10916 10915 10914 10912
11053 11056 11057 11057 11059 11061 11060 11057 11057 11055 11055 11051 11050 11045 11042 11037 11033 11026 11019 11013 11007 11000 10994 10988 10983 10977 10970 10963 10956 10950 10943 10937 10932 10928 10926 10925 10925 10923 10922 10919 10917 10915 10911
11047 11051 11053 11054 11056 11058 11059 11057 11056 11057 11054 11052 11050 11047 11043 11039 11034 11027 11021 11012 11005 11001 10996 10991 10985 10978 10974 10967 10962 10956 10949 10943 10937 10933 10930 10928 10928 10927 10925 10921 10918 10914 10909
11043 11046 11049 11051 11052 11054 11056 11056 11055 11055 11054 11052 11049 11047 11044 11041 11037 11031 11024 11017 11010 11005 10999 10991 10986 10982 10978 10973 10968 10962 10956 10950 10944 10940 10938 10936 10934 10932 10929 10925 10922 10919 10916
11036 11040 11044 11046 11047 11050 11052 11054 11053 11053 11053 11052 11048 11047 11046 11043 11038 11034 11027 11017 11011 11006 11002 10996 10991 10987 10984 10979 10973 10969 10963 10959 10954 10950 10947 10943 10940 10938 10937 10934 10932 10928 10923
11028 11033 11038 11041 11044 11045 11047 11050 11051 11051 11051 11050 11049 11046 11046 11043 11039 11035 11027 11020 11015 11010 11006 11001 10996 10992 10990 10985 10980 10977 10971 10967 10963 10959 10956 10954 10951 10948 10945 10940 10936 10931 10927
11020 11025 11030 11035 11038 11041 11043 11046 11048 11048 11048 11048 11048 11047 11046 11043 11039 11036 11028 11021 11016 11011 11009 11006 11002 10999 10994 10990 10987 10983 10978 10974 10970 10965 10961 10957 10955 10951 10947 10943 10939 10935 10931
11012 11016 11022 11029 11033 11037 11040 11042 11045 11045 11046 11046 11046 11046 11046 11043 11041 11037 11032 11025 11019 11015 11012 11008 11005 11002 10998 10993 10991 10989 10986 10981 10978 10973 10967 10963 10959 10956 10952 10948 10944 10941 10937
11005 11009 11015 11021 11027 11032 11035 11038 11041 11042 11044 11044 11046 11047 11045 11046 11042 11038 11034 11026 11021 11016 11013 11011 11008 11005 11001 10997 10993 10991 10989 10986 10982 10977 10973 10969 10964 10960 10957 10954 10950 10945 10942
10998 11003 11006 11011 11020 11026 11030 11033 11035 11038 11040 11041 11042 11045 11045 11045 11044 11040 11035 11028 11021 11019 11015 11012 11009 11008 11004 10998 10996 10993 10989 10988 10985 10981 10977 10972 10969 10966 10963 10959 10954 10950 10946
10991 10994 10998 11005 11012 11018 11024 11028 11030 11032 11036 11038 11039 11041 11043 11042 11042 11040 11036 11030 11020 11018 11016 11013 11011 11009 11006 11002 10998 10995 10992 10990 10986 10981 10978 10975 10972 10969 10965 10962 10958 10953 10949
10983 10985 10990 10996 11003 11010 11016 11021 11024 11027 11031 11034 11035 11037 11039 11039 11040 11038 11036 11030 11023 11019 11015 11012 11010 11007 11005 11003 11000 10998 10995 10992 10987 10982 10979 10977 10974 10970 10967 10965 10961 10956 10952
10974 10978 10982 10988 10995 11003 11008 11014 11017 11021 11024 11029 11030 11033 11034 11036 11037 11037 11035 11030 11026 11020 11015 11010 11009 11008 11005 11002 11000 10998 10995 10992 10988 10984 10981 10978 10974 10972 10969 10965 10962 10959 10954
10967 10971 10976 10981 10988 10995 11001 11005 11011 11014 11018 11021 11025 11028 11029 11032 11032 11033 11033 11030 11025 11020 11015 11010 11007 11007 11004 11002 11000 10998 10995 10992 10990 10987 10984 10981 10978 10974 10971 10967 10962 10957 10952
10961 10966 10971 10975 10982 10989 10995 11000 11004 11009 11012 11014 11020 11023 11025 11028 11029 11028 11028 11026 11023 11020 11016 11009 11006 11005 11003 11001 10998 10997 10994 10992 10990 10988 10984 10981 10977 10974 10971 10966 10961 10956 10950
10957 10963 10967 10971 10978 10984 10989 10991 10995 11000 11003 11007 11012 11017 11020 11024 11026 11026 11025 11023 11021 11018 11014 11008 11003 11001 10999 10998 10998 10996 10995 10992 10989 10985 10983 10980 10977 10973 10969 10964 10958 10953 10947
10954 10959 10965 10971 10975 10980 10983 10987 10991 10996 10997 11002 11006 11010 11015 11019 11022 11023 11022 11020 11020 11014 11010 11007 11001 10998 10996 10994 10995 10994 10992 10990 10986 10982 10980 10977 10974 10971 10966 10960 10956 10952 10946
10953 10957 10962 10966 10970 10975 10978 10983 10986 10991 10993 10995 10999 11004 11009 11013 11016 11018 11018 11018 11016 11012 11010 11005 11000 10997 10992 10990 10991 10991 10989 10986 10984 10980 10977 10974 10971 10966 10963 10957 10953 10949 10943
10954 10956 10959 10963 10966 10971 10973 10978 10981 10983 10985 10988 10993 10997 11003 11007 11010 11012 11014 11014 11013 11008 11005 11003 10998 10993 10990 10988 10987 10987 10986 10984 10980 10976 10973 10969 10965 10963 10958 10953 10948 10944 10939
10952 10954 10957 10959 10962 10965 10969 10971 10973 10974 10975 10981 10984 10991 10997 11000 11004 11007 11007 11010 11009 11006 11003 11000 10995 10991 10986 10985 10983 10983 10981 10979 10977 10974 10969 10965 10962 10957 10952 10947 10944 10938 10934
10947 10951 10953 10956 10958 10960 10962 10964 10966 10968 10969 10972 10978 10984 10989 10994 10998 11001 11002 11004 11003 11003 11000 10998 10993 10990 10986 10983 10980 10978 10977 10976 10974 10970 10965 10962 10958 10954 10949 10947 10940 10935 10931
10943 10945 10949 10951 10951 10953 10954 10955 10960 10962 10963 10966 10972 10976 10982 10988 10993 10996 10997 10998 10998 10997 10995 10993 10991 10988 10983 10979 10977 10974 10972 10970 10968 10965 10961 10957 10954 10949 10946 10942 10937 10931 10927